1486375200.66,53505,11.25,72726.8,4.21,-32.35,-33.31,0,*79
1486375201.91,53506,11.25,72726.3,4.21,-31.91,-32.91,0,*7C
1486375203.17,53507,11.25,72726.3,4.21,-31.23,-32.23,0,*7D
1486375204.45,53508,11.25,72722.3,4.25,-31.85,-32.75,0,*79
1486375205.67,53509,11.25,72724.0,4.23,-32.01,-32.97,0,*7D
1486375206.92,53510,11.25,72724.5,4.25,-31.95,-33.03,0,*71
1486375208.12,53511,11.25,72724.3,4.27,-32.35,-33.37,0,*7C
1486375209.34,53512,11.25,72726.3,4.27,-31.85,-32.91,0,*7A
1486375210.56,53513,11.25,72724.5,4.27,-32.19,-33.37,0,*70
1486375211.78,53514,11.25,72726.0,4.27,-32.91,-34.01,0,*75
1486375213.02,53515,11.25,72724.3,4.29,-32.51,-33.43,0,*77
1486375214.24,53516,11.25,72726.0,4.29,-32.51,-33.73,0,*77
1486375215.48,53517,11.25,72726.8,4.29,-33.77,-35.01,0,*70
1486375216.7,53518,11.25,72726.5,4.29,-33.95,-35.23,0,*73
1486375217.93,53519,11.25,72724.5,4.27,-34.53,-35.77,0,*70
1486375219.16,53520,11.25,72720.5,4.27,-33.83,-34.95,0,*7D
1486375220.4,53521,11.25,72726.8,4.25,-33.61,-34.71,0,*78
1486375221.65,53522,11.25,72728.5,4.25,-33.83,-34.95,0,*7D
1486375222.86,53523,11.25,72728.0,4.23,-33.83,-35.13,0,*75
1486375224.08,53524,11.25,72726.0,4.23,-34.07,-35.35,0,*7D
1486375225.3,53525,11.25,72724.3,4.23,-33.43,-34.59,0,*70
1486375226.51,53526,11.25,72726.0,4.23,-33.83,-35.01,0,*73
1486375227.75,53527,11.25,72726.5,4.23,-33.43,-34.83,0,*75
1486375228.97,53528,11.25,72726.8,4.23,-33.89,-35.17,0,*70
1486375230.22,53529,11.25,72726.5,4.21,-34.25,-35.53,0,*72
1486375231.47,53530,11.25,72724.8,4.21,-33.49,-34.71,0,*76
1486375232.72,53531,11.25,72724.8,4.19,-33.31,-34.53,0,*73
1486375233.98,53532,11.25,72724.0,4.21,-33.49,-34.71,0,*74
1486375235.23,53533,11.25,72726.5,4.21,-33.31,-34.59,0,*70
1486375236.5,53534,11.25,72726.8,4.21,-33.27,-34.53,0,*7A
1486375237.73,53535,11.25,72726.8,4.19,-33.37,-34.65,0,*74
1486375238.98,53536,11.25,72726.3,4.21,-33.27,-34.59,0,*72
1486375240.23,53537,11.25,72726.3,4.21,-33.43,-34.71,0,*7B
1486375241.45,53538,11.25,72724.8,4.19,-33.31,-34.59,0,*70
1486375242.69,53539,11.25,72724.3,4.21,-33.15,-34.35,0,*76
1486375243.9,53540,11.25,72724.0,4.21,-33.15,-34.41,0,*7B
1486375245.1,53541,11.25,72724.3,4.19,-33.95,-35.17,0,*7B
1486375246.34,53542,11.25,72730.3,4.21,-33.55,-34.83,0,*73
1486375247.54,53543,11.25,72722.5,4.19,-33.37,-34.59,0,*7A
1486375248.82,53544,11.25,72724.0,4.21,-33.31,-34.53,0,*7A
1486375250.07,53545,11.25,72724.3,4.21,-33.31,-34.59,0,*71
1486375251.3,53546,11.31,72730.0,4.19,-33.49,-34.77,0,*7A
1486375252.52,53547,11.25,72728.3,4.21,-33.83,-35.17,0,*71
1486375253.77,53548,11.25,72724.3,4.19,-33.89,-35.23,0,*78
1486375254.98,53549,11.25,72726.8,4.19,-33.55,-34.83,0,*73
1486375256.17,53550,11.25,72726.3,4.19,-33.15,-34.41,0,*71
1486375257.39,53551,11.25,72724.0,4.19,-32.85,-34.07,0,*7A
1486375258.59,53552,11.25,72722.8,4.19,-32.69,-34.07,0,*7B
1486375259.79,53553,11.25,72722.0,4.19,-33.15,-34.47,0,*74
1486375261.07,53554,11.25,72726.8,4.21,-33.89,-35.35,0,*79
1486375262.29,53555,11.25,72726.0,4.19,-33.49,-34.77,0,*78
1486375263.51,53556,11.25,72724.8,4.19,-33.15,-34.31,0,*70
1486375264.69,53557,11.25,72724.5,4.19,-33.15,-34.41,0,*76
1486375265.93,53558,11.25,72726.5,4.19,-32.97,-34.31,0,*75
1486375267.15,53559,11.25,72724.0,4.19,-32.39,-33.73,0,*71
1486375268.38,53560,11.25,72728.0,4.19,-32.51,-33.77,0,*71
1486375269.59,53561,11.25,72722.0,4.21,-32.91,-34.25,0,*77
1486375270.86,53562,11.25,72724.5,4.21,-33.09,-34.35,0,*75
1486375272.09,53563,11.25,72724.0,4.21,-33.67,-35.13,0,*79
1486375273.3,53564,11.25,72726.3,4.19,-33.15,-34.35,0,*75
1486375274.55,53565,11.25,72726.0,4.21,-32.63,-34.07,0,*7E
1486375275.77,53566,11.25,72724.0,4.19,-32.39,-33.61,0,*7E
1486375276.99,53567,11.25,72724.3,4.21,-32.39,-33.55,0,*73
1486375278.24,53568,11.25,72722.5,4.21,-31.91,-33.15,0,*79
1486375279.49,53569,11.25,72724.5,4.23,-31.73,-33.09,0,*7B
1486375280.76,53570,11.25,72724.8,4.25,-32.75,-34.19,0,*76
1486375281.98,53571,11.25,72726.0,4.25,-32.57,-33.83,0,*73
1486375283.21,53572,11.25,72728.0,4.25,-32.01,-33.37,0,*7C
1486375284.42,53573,11.25,72726.5,4.25,-32.35,-33.83,0,*75
1486375285.67,53574,11.25,72724.3,4.25,-32.85,-34.13,0,*77
1486375286.91,53575,11.25,72724.3,4.27,-32.85,-34.19,0,*7E
1486375288.13,53576,11.25,72724.8,4.27,-33.49,-34.77,0,*74
1486375289.34,53577,11.25,72724.8,4.27,-34.47,-35.77,0,*7D
1486375290.59,53578,11.25,72724.5,4.27,-33.49,-34.95,0,*76
1486375291.82,53579,11.25,72726.3,4.25,-33.21,-34.47,0,*74
1486375293.06,53580,11.25,72724.5,4.25,-32.91,-34.31,0,*79
1486375294.29,53581,11.25,72726.5,4.25,-32.91,-34.19,0,*72
1486375295.53,53582,11.25,72724.5,4.25,-33.95,-35.23,0,*7C
1486375296.76,53583,11.25,72724.3,4.25,-33.67,-35.13,0,*73
1486375297.98,53584,11.25,72726.0,4.25,-33.37,-34.71,0,*74
1486375299.24,53585,11.25,72724.3,4.23,-34.01,-35.35,0,*70
1486375300.46,53586,11.25,72726.0,4.23,-33.43,-34.77,0,*75
1486375301.66,53587,11.25,72724.0,4.23,-33.55,-35.01,0,*73
1486375302.88,53588,11.25,72726.5,4.23,-33.55,-34.95,0,*70
1486375304.08,53589,11.25,72724.8,4.23,-33.55,-35.01,0,*7D
1486375305.32,53590,11.25,72724.0,4.23,-34.01,-35.29,0,*79
1486375306.54,53591,11.25,72726.3,4.23,-33.55,-34.95,0,*78
1486375307.77,53592,11.25,72724.0,4.23,-33.43,-35.01,0,*70
1486375309.04,53593,11.25,72724.8,4.21,-33.43,-34.83,0,*78
1486375310.29,53594,11.25,72726.0,4.21,-33.31,-34.59,0,*7D
1486375311.47,53595,11.25,72726.5,4.23,-33.15,-34.41,0,*71
1486375312.66,53596,11.25,72728.0,4.23,-33.15,-34.41,0,*72
1486375313.9,53597,11.25,72726.5,4.23,-33.09,-34.35,0,*7D
1486375315.1,53598,11.25,72726.8,4.23,-32.39,-33.67,0,*70
1486375316.32,53599,11.25,72726.8,4.23,-32.63,-34.07,0,*7F
1486375317.55,53600,11.25,72726.5,4.23,-34.07,-35.53,0,*78
1486375318.8,53601,11.25,72726.5,4.25,-34.65,-36.07,0,*79
1486375320.01,53602,11.25,72726.3,4.23,-34.71,-36.07,0,*79
1486375321.22,53603,11.25,72724.3,4.23,-32.97,-34.25,0,*74
1486375322.44,53604,11.25,72726.5,4.23,-32.57,-33.89,0,*7E
1486375323.64,53605,11.25,72724.8,4.23,-32.35,-33.67,0,*7B
1486375324.91,53606,11.25,72726.3,4.25,-33.09,-34.53,0,*70
1486375326.16,53607,11.25,72724.0,4.25,-33.43,-34.77,0,*79
1486375327.38,53608,11.25,72724.8,4.25,-32.69,-33.95,0,*74
1486375328.63,53609,11.25,72722.0,4.25,-32.75,-34.13,0,*71
1486375329.85,53610,11.25,72724.8,4.25,-32.57,-33.95,0,*70
1486375331.07,53611,11.25,72728.3,4.27,-32.57,-34.01,0,*79
1486375332.31,53612,11.25,72726.0,4.27,-32.75,-34.19,0,*73
1486375333.54,53613,11.31,72728.3,4.27,-32.75,-34.13,0,*78
1486375334.73,53614,11.25,72724.8,4.27,-33.67,-35.13,0,*7C
1486375335.97,53615,11.25,72726.3,4.27,-33.61,-35.07,0,*7E
1486375337.2,53616,11.25,72726.5,4.27,-33.77,-35.13,0,*7F
1486375338.45,53617,11.25,72726.3,4.25,-33.77,-35.13,0,*7C
1486375339.72,53618,11.25,72724.3,4.25,-33.77,-35.07,0,*76
1486375340.94,53619,11.25,72724.0,4.25,-33.67,-35.13,0,*73
1486375342.21,53620,11.25,72726.0,4.25,-34.31,-35.65,0,*7C
1486375343.42,53621,11.25,72726.3,4.27,-34.13,-35.29,0,*77
1486375344.69,53622,11.25,72724.5,4.25,-34.31,-35.65,0,*7E
1486375345.94,53623,11.25,72722.3,4.23,-34.35,-35.65,0,*7D
1486375347.16,53624,11.25,72724.8,4.23,-34.41,-35.65,0,*79
1486375348.41,53625,11.25,72728.3,4.21,-34.25,-35.65,0,*78
1486375349.64,53626,11.25,72726.0,4.21,-34.71,-36.07,0,*7D
1486375350.89,53627,11.25,72724.0,4.21,-35.17,-36.61,0,*7D
1486375352.11,53628,11.25,72724.3,4.19,-34.83,-36.19,0,*7A
1486375353.34,53629,11.25,72726.0,4.17,-34.89,-36.31,0,*75
1486375354.58,53630,11.25,72726.0,4.17,-35.53,-36.85,0,*74
1486375355.86,53631,11.25,72724.8,4.13,-36.13,-37.63,0,*7F
1486375357.09,53632,11.25,72726.8,4.11,-35.53,-36.79,0,*73
1486375358.32,53633,11.25,72726.3,4.09,-35.47,-36.85,0,*7D
1486375359.55,53634,11.25,72726.0,4.09,-35.47,-36.67,0,*76
1486375360.77,53635,11.25,72726.5,4.07,-35.53,-36.73,0,*79
1486375362.03,53636,11.25,72728.3,4.05,-35.77,-37.21,0,*78
1486375363.24,53637,11.31,72728.0,4.03,-36.19,-37.69,0,*78
1486375364.53,53638,11.25,72726.0,4.01,-36.25,-37.81,0,*7C
1486375365.78,53639,11.25,72726.5,3.97,-36.31,-37.69,0,*76
1486375367.04,53640,11.25,72728.3,3.97,-34.83,-36.07,0,*7A
1486375368.29,53641,11.25,72728.8,3.97,-35.59,-36.91,0,*72
1486375369.54,53642,11.25,72726.0,3.95,-36.31,-37.51,0,*73
1486375370.73,53643,11.25,72724.8,3.93,-36.31,-37.75,0,*72
1486375371.96,53644,11.25,72726.0,3.89,-36.01,-37.21,0,*7C
1486375373.21,53645,11.25,72724.0,3.87,-36.01,-37.21,0,*73
1486375374.43,53646,11.25,72730.8,3.87,-36.01,-37.15,0,*77
1486375375.66,53647,11.25,72726.3,3.85,-35.95,-37.27,0,*7B
1486375376.9,53648,11.31,72730.3,3.83,-35.89,-37.09,0,*73
1486375378.15,53649,11.25,72726.3,3.83,-35.59,-36.91,0,*7F
1486375379.39,53650,11.25,72728.0,3.83,-35.41,-36.73,0,*72
1486375380.63,53651,11.31,72730.5,3.81,-35.41,-36.61,0,*72
1486375381.88,53652,11.25,72728.0,3.79,-35.13,-36.25,0,*71
1486375383.13,53653,11.25,72724.8,3.79,-35.23,-36.43,0,*73
1486375384.38,53654,11.25,72726.0,3.79,-35.89,-37.21,0,*71
1486375385.58,53655,11.25,72724.3,3.77,-35.71,-36.97,0,*75
1486375386.77,53656,11.25,72726.0,3.77,-35.71,-36.85,0,*75
1486375387.99,53657,11.25,72726.3,3.75,-35.71,-37.03,0,*79
1486375389.21,53658,11.25,72724.3,3.75,-35.59,-36.85,0,*73
1486375390.41,53659,11.25,72728.8,3.73,-35.17,-36.43,0,*74
1486375391.68,53660,11.25,72726.5,3.73,-34.95,-35.95,0,*7D
1486375392.95,53661,11.25,72724.3,3.71,-35.07,-36.49,0,*76
1486375394.2,53662,11.25,72724.5,3.71,-35.23,-36.31,0,*7C
1486375395.47,53663,11.31,72730.8,3.71,-34.53,-35.77,0,*7A
1486375396.75,53664,11.25,72726.5,3.71,-34.35,-35.53,0,*7B
1486375398.0,53665,11.25,72724.5,3.71,-34.13,-35.23,0,*79
1486375399.27,53666,11.25,72726.5,3.67,-34.31,-35.23,0,*7D
1486375400.51,53667,11.25,72726.5,3.65,-34.19,-35.29,0,*7E
1486375401.76,53668,11.25,72728.8,3.67,-33.95,-35.07,0,*7C
1486375403.04,53669,11.25,72726.8,3.71,-34.31,-35.41,0,*71
1486375404.29,53670,11.25,72726.8,3.71,-34.35,-35.59,0,*74
1486375405.57,53671,11.25,72728.3,3.71,-34.31,-35.23,0,*7C
1486375406.82,53672,11.25,72724.0,3.67,-34.13,-35.23,0,*78
1486375408.08,53673,11.25,72726.0,3.67,-34.53,-35.59,0,*70
1486375409.34,53674,11.25,72728.5,3.67,-34.59,-35.65,0,*72
1486375410.62,53675,11.25,72730.3,3.67,-35.23,-36.25,0,*78
1486375411.87,53676,11.25,72724.0,3.67,-35.29,-36.37,0,*72
1486375413.11,53677,11.25,72722.5,3.67,-34.89,-36.01,0,*7D
1486375414.32,53678,11.25,72724.5,3.65,-34.89,-35.89,0,*73
1486375415.53,53679,11.25,72728.0,3.65,-34.89,-36.01,0,*71
1486375416.75,53680,11.25,72728.5,3.65,-34.77,-35.89,0,*75
1486375417.96,53681,11.25,72728.3,3.65,-34.41,-35.29,0,*7B
1486375419.19,53682,11.25,72724.8,3.63,-34.19,-35.13,0,*7A
1486375420.43,53683,11.31,72728.8,3.63,-34.83,-35.89,0,*7B
1486375421.62,53684,11.31,72732.0,3.63,-35.71,-36.85,0,*7F
1486375422.87,53685,11.25,72726.0,3.61,-35.35,-36.31,0,*73
1486375424.12,53686,11.31,72730.0,3.61,-35.47,-36.49,0,*7A
1486375425.36,53687,11.25,72724.8,3.61,-35.01,-35.89,0,*76
1486375426.59,53688,11.25,72726.5,3.57,-35.89,-36.97,0,*70
1486375427.84,53689,11.25,72728.3,3.57,-35.29,-36.37,0,*71
1486375429.08,53690,11.25,72726.8,3.57,-35.13,-36.01,0,*75
1486375430.3,53691,11.25,72728.8,3.57,-35.13,-36.07,0,*72
1486375431.53,53692,11.25,72726.5,3.55,-35.23,-36.07,0,*70
1486375432.75,53693,11.25,72726.8,3.53,-35.13,-36.07,0,*74
1486375433.99,53694,11.31,72728.5,3.53,-34.77,-35.71,0,*72
1486375435.23,53695,11.25,72724.0,3.53,-34.59,-35.47,0,*7A
1486375436.46,53696,11.31,72728.0,3.53,-34.41,-35.17,0,*75
1486375437.7,53697,11.25,72726.5,3.53,-34.59,-35.47,0,*78
1486375438.95,53698,11.25,72728.8,3.53,-33.67,-34.35,0,*79
1486375440.23,53699,11.25,72726.5,3.53,-33.89,-34.65,0,*7D
1486375441.46,53700,11.25,72724.3,3.55,-33.61,-34.47,0,*7C
1486375442.66,53701,11.31,72728.0,3.55,-32.91,-33.67,0,*76
1486375443.88,53702,11.25,72724.3,3.55,-33.09,-33.83,0,*7F
1486375445.08,53703,11.25,72728.0,3.55,-33.21,-33.95,0,*73
1486375446.31,53704,11.25,72730.0,3.55,-33.37,-34.19,0,*70
1486375447.59,53705,11.31,72728.8,3.57,-34.19,-35.07,0,*76
1486375448.87,53706,11.31,72730.5,3.57,-34.31,-35.07,0,*7F
1486375450.11,53707,11.31,72728.0,3.57,-33.67,-34.47,0,*7F
1486375451.39,53708,11.25,72726.5,3.57,-33.27,-34.01,0,*76
1486375452.61,53709,11.25,72724.8,3.55,-33.43,-34.13,0,*74
1486375453.89,53710,11.25,72726.5,3.57,-33.77,-34.53,0,*7D
1486375455.13,53711,11.25,72728.3,3.57,-33.67,-34.47,0,*78
1486375456.4,53712,11.31,72730.8,3.57,-33.61,-34.31,0,*7C
1486375457.65,53713,11.25,72728.0,3.57,-33.67,-34.35,0,*7F
1486375458.92,53714,11.25,72730.3,3.57,-33.43,-34.19,0,*70
1486375460.17,53715,11.25,72728.8,3.57,-33.43,-33.95,0,*72
1486375461.4,53716,11.25,72724.8,3.59,-33.43,-34.13,0,*76
1486375462.6,53717,11.25,72726.8,3.59,-33.37,-34.13,0,*74
1486375463.8,53718,11.25,72724.3,3.59,-32.69,-33.15,0,*70
1486375465.0,53719,11.25,72726.5,3.59,-32.35,-33.03,0,*7F
1486375466.28,53720,11.25,72728.5,3.61,-32.63,-33.27,0,*7B
1486375467.49,53721,11.25,72728.3,3.61,-33.15,-33.83,0,*74
1486375468.72,53722,11.25,72726.0,3.63,-32.79,-33.15,0,*71
1486375469.95,53723,11.25,72728.0,3.63,-32.57,-33.09,0,*71
1486375471.19,53724,11.25,72726.8,3.61,-32.29,-32.91,0,*7D
1486375472.42,53725,11.31,72730.5,3.63,-32.57,-32.97,0,*71
1486375473.62,53726,11.25,72726.3,3.65,-32.91,-33.21,0,*72
1486375474.87,53727,11.25,72730.0,3.65,-33.27,-34.01,0,*7A
1486375476.13,53728,11.25,72724.5,3.65,-33.27,-33.77,0,*73
1486375477.36,53729,11.25,72726.8,3.67,-32.57,-33.03,0,*75
1486375478.61,53730,11.25,72726.0,3.67,-32.23,-32.75,0,*7E
1486375479.83,53731,11.25,72726.5,3.67,-32.23,-32.57,0,*7F
1486375481.11,53732,11.25,72724.8,3.71,-32.19,-32.63,0,*75
1486375482.33,53733,11.25,72726.5,3.75,-32.57,-32.91,0,*77
1486375483.53,53734,11.25,72724.8,3.73,-32.91,-33.15,0,*71
1486375484.75,53735,11.31,72728.8,3.71,-33.55,-33.95,0,*73
1486375485.98,53736,11.25,72724.8,3.73,-34.19,-34.77,0,*76
1486375487.23,53737,11.25,72726.8,3.71,-34.31,-34.89,0,*7E
1486375488.48,53738,11.25,72726.0,3.71,-34.89,-35.35,0,*74
1486375489.71,53739,11.25,72726.0,3.67,-34.41,-34.71,0,*77
1486375490.94,53740,11.25,72726.5,3.65,-34.19,-34.71,0,*76
1486375492.19,53741,11.25,72726.5,3.65,-33.77,-34.19,0,*76
1486375493.42,53742,11.25,72728.3,3.65,-34.35,-34.89,0,*7D
1486375494.62,53743,11.25,72722.8,3.65,-34.41,-34.89,0,*7F
1486375495.88,53744,11.25,72728.0,3.65,-34.19,-34.53,0,*72
1486375497.13,53745,11.31,72730.0,3.63,-34.35,-34.65,0,*7E
1486375498.34,53746,11.25,72726.3,3.63,-33.37,-33.67,0,*7D
1486375499.56,53747,11.25,72726.5,3.63,-32.79,-33.15,0,*72
1486375500.79,53748,11.25,72726.5,3.63,-33.15,-33.31,0,*70
1486375502.02,53749,11.25,72724.3,3.65,-32.75,-32.91,0,*7B
1486375503.28,53750,11.25,72728.0,3.65,-32.85,-33.09,0,*7C
1486375504.51,53751,11.25,72726.5,3.65,-32.75,-33.03,0,*78
1486375505.75,53752,11.25,72728.3,3.65,-33.21,-33.43,0,*7F
1486375506.98,53753,11.25,72726.0,3.65,-33.43,-33.83,0,*76
1486375508.22,53754,11.25,72728.0,3.67,-33.43,-33.83,0,*73
1486375509.48,53755,11.31,72728.0,3.65,-34.01,-34.31,0,*7F
1486375510.73,53756,11.25,72726.3,3.65,-34.19,-34.35,0,*71
1486375511.98,53757,11.25,72726.5,3.65,-34.19,-34.35,0,*70
1486375513.23,53758,11.25,72724.3,3.63,-33.73,-33.89,0,*72
1486375514.48,53759,11.25,72730.0,3.61,-33.83,-34.19,0,*70
1486375515.67,53760,11.25,72726.0,3.63,-33.55,-33.83,0,*77
1486375516.9,53761,11.25,72726.0,3.63,-33.31,-33.55,0,*7F
1486375518.15,53762,11.25,72730.5,3.63,-33.49,-33.73,0,*77
1486375519.4,53763,11.25,72726.0,3.63,-34.01,-34.19,0,*76
1486375520.67,53764,11.25,72728.3,3.61,-33.27,-33.31,0,*7D
1486375521.92,53765,11.25,72726.0,3.63,-33.31,-33.49,0,*76
1486375523.13,53766,11.25,72730.3,3.63,-33.37,-33.67,0,*7F
1486375524.37,53767,11.25,72724.8,3.61,-34.19,-34.25,0,*76
1486375525.65,53768,11.25,72726.0,3.61,-33.73,-33.89,0,*73
1486375526.88,53769,11.25,72726.0,3.63,-33.73,-33.83,0,*7A
1486375528.13,53770,11.25,72730.3,3.63,-33.27,-33.31,0,*7A
1486375529.4,53771,11.25,72726.8,3.61,-33.31,-33.49,0,*71
1486375530.68,53772,11.25,72724.5,3.61,-34.01,-34.01,0,*7D
1486375531.93,53773,11.25,72726.0,3.61,-34.41,-34.65,0,*7A
1486375533.14,53774,11.25,72728.0,3.59,-34.59,-34.77,0,*7C
1486375534.38,53775,11.25,72726.0,3.57,-34.59,-34.89,0,*72
1486375535.63,53776,11.25,72726.5,3.55,-34.95,-35.07,0,*74
1486375536.89,53777,11.25,72730.3,3.55,-34.95,-35.07,0,*75
1486375538.16,53778,11.25,72726.3,3.53,-34.59,-34.65,0,*79
1486375539.38,53779,11.31,72728.8,3.53,-34.25,-34.41,0,*75
1486375540.63,53780,11.25,72728.5,3.53,-34.19,-34.07,0,*7E
1486375541.91,53781,11.25,72724.8,3.53,-34.53,-34.35,0,*70
1486375543.16,53782,11.25,72726.5,3.49,-34.31,-34.41,0,*7F
1486375544.39,53783,11.25,72722.5,3.51,-34.41,-34.53,0,*73
1486375545.62,53784,11.25,72728.5,3.49,-34.47,-34.41,0,*78
1486375546.86,53785,11.25,72728.3,3.49,-34.47,-34.47,0,*7F
1486375548.11,53786,11.25,72726.3,3.49,-34.31,-34.41,0,*7B
1486375549.34,53787,11.25,72726.3,3.43,-34.65,-34.71,0,*72
1486375550.55,53788,11.25,72728.8,3.43,-34.77,-34.77,0,*78
1486375551.78,53789,11.25,72724.8,3.43,-35.07,-34.77,0,*7F
1486375552.99,53790,11.25,72728.0,3.43,-34.47,-34.47,0,*71
1486375554.23,53791,11.25,72726.5,3.41,-34.77,-34.59,0,*7E
1486375555.49,53792,11.25,72730.3,3.39,-34.53,-34.53,0,*7E
1486375556.69,53793,11.25,72726.3,3.39,-34.59,-34.41,0,*76
1486375557.91,53794,11.25,72726.8,3.39,-34.07,-33.89,0,*79
1486375559.15,53795,11.25,72728.8,3.39,-34.77,-34.53,0,*7F
1486375560.37,53796,11.25,72726.8,3.37,-34.59,-34.41,0,*7D
1486375561.63,53797,11.25,72726.3,3.37,-33.89,-33.67,0,*75
1486375562.82,53798,11.25,72728.5,3.35,-33.95,-33.95,0,*78
1486375564.08,53799,11.25,72728.3,3.35,-33.89,-33.73,0,*7C
1486375565.31,53800,11.25,72728.3,3.35,-34.65,-34.47,0,*76
1486375566.51,53801,11.25,72724.0,3.35,-34.25,-34.07,0,*77
1486375567.74,53802,11.25,72726.3,3.35,-34.41,-34.31,0,*73
1486375568.96,53803,11.25,72728.3,3.31,-35.17,-35.01,0,*76
1486375570.24,53804,11.25,72724.5,3.33,-34.95,-34.83,0,*73
1486375571.5,53805,11.25,72724.8,3.31,-34.77,-34.53,0,*71
1486375572.72,53806,11.25,72724.3,3.31,-34.07,-33.83,0,*7F
1486375573.94,53807,11.25,72726.5,3.31,-34.25,-34.07,0,*75
1486375575.17,53808,11.25,72728.0,3.31,-34.07,-33.67,0,*7B
1486375576.38,53809,11.25,72730.8,3.27,-34.41,-34.25,0,*7E
1486375577.66,53810,11.25,72726.3,3.31,-34.01,-33.61,0,*72
1486375578.89,53811,11.25,72726.0,3.29,-34.01,-33.67,0,*7C
1486375580.15,53812,11.25,72724.3,3.29,-33.73,-33.31,0,*7E
1486375581.4,53813,11.25,72726.8,3.27,-34.07,-33.89,0,*76
1486375582.63,53814,11.25,72724.3,3.29,-33.67,-33.31,0,*7D
1486375583.86,53815,11.25,72726.0,3.27,-33.83,-33.67,0,*7B
1486375585.11,53816,11.25,72730.3,3.27,-34.47,-34.31,0,*73
1486375586.3,53817,11.25,72726.3,3.25,-34.25,-34.07,0,*71
1486375587.53,53818,11.25,72730.0,3.21,-34.89,-34.53,0,*7D
1486375588.75,53819,11.25,72724.5,3.21,-34.47,-34.31,0,*7A
1486375590.0,53820,11.25,72726.3,3.21,-34.19,-33.77,0,*7E
1486375591.25,53821,11.25,72724.8,3.21,-34.19,-33.89,0,*7E
1486375592.5,53822,11.25,72726.0,3.21,-34.35,-34.19,0,*7D
1486375593.77,53823,11.25,72726.8,3.19,-34.01,-33.61,0,*78
1486375595.02,53824,11.25,72728.0,3.17,-34.01,-33.61,0,*71
1486375596.24,53825,11.25,72724.8,3.19,-33.55,-33.21,0,*7C
1486375597.49,53826,11.25,72726.3,3.19,-33.55,-33.09,0,*75
1486375598.72,53827,11.25,72728.3,3.17,-33.67,-33.27,0,*77
1486375599.95,53828,11.25,72728.8,3.17,-34.01,-33.67,0,*7B
1486375601.2,53829,11.25,72728.5,3.17,-33.77,-33.27,0,*78
1486375602.4,53830,11.25,72728.8,3.17,-33.55,-33.03,0,*76
1486375603.63,53831,11.25,72724.5,3.17,-33.95,-33.43,0,*7F
1486375604.86,53832,11.25,72728.5,3.17,-33.67,-33.27,0,*73
1486375606.09,53833,11.25,72728.3,3.17,-33.09,-32.69,0,*71
1486375607.32,53834,11.31,72732.0,3.17,-33.09,-32.51,0,*7D
1486375608.55,53835,11.25,72722.5,3.17,-32.39,-31.91,0,*71
1486375609.74,53836,11.25,72724.5,3.17,-32.51,-32.01,0,*76
1486375610.98,53837,11.25,72726.5,3.17,-33.09,-32.69,0,*75
1486375612.22,53838,11.25,72724.5,3.19,-32.45,-32.01,0,*73
1486375613.42,53839,11.25,72730.8,3.21,-31.67,-31.29,0,*73
1486375614.67,53840,11.25,72728.5,3.21,-31.11,-30.55,0,*76
1486375615.93,53841,11.25,72730.0,3.21,-31.39,-30.61,0,*7A
1486375617.15,53842,11.25,72726.8,3.25,-31.17,-30.55,0,*76
1486375618.43,53843,11.25,72730.3,3.27,-31.61,-30.89,0,*75
1486375619.66,53844,11.25,72730.8,3.29,-31.85,-31.29,0,*7D
1486375620.92,53845,11.25,72730.0,3.29,-31.57,-30.95,0,*75
1486375622.15,53846,11.25,72726.3,3.29,-31.57,-31.01,0,*7A
1486375623.39,53847,11.25,72728.3,3.29,-31.57,-30.83,0,*70
1486375624.64,53848,11.25,72730.0,3.33,-31.29,-30.55,0,*76
1486375625.87,53849,11.25,72726.3,3.35,-30.51,-29.83,0,*7C
1486375627.09,53850,11.25,72728.8,3.35,-31.05,-30.39,0,*7D
1486375628.33,53851,11.31,72728.8,3.37,-31.45,-30.83,0,*7B
1486375629.55,53852,11.25,72724.5,3.35,-31.45,-30.83,0,*7A
1486375630.8,53853,11.25,72728.5,3.39,-31.57,-30.95,0,*73
1486375632.02,53854,11.25,72726.0,3.39,-31.01,-30.51,0,*7F
1486375633.25,53855,11.25,72728.8,3.41,-31.01,-30.45,0,*74
1486375634.53,53856,11.25,72730.8,3.41,-31.57,-30.95,0,*79
1486375635.8,53857,11.25,72728.3,3.43,-31.23,-30.73,0,*71
1486375637.05,53858,11.25,72726.5,3.45,-31.61,-31.05,0,*7E
1486375638.28,53859,11.25,72728.5,3.43,-31.61,-31.05,0,*79
1486375639.56,53860,11.25,72726.0,3.45,-32.19,-31.61,0,*7B
1486375640.82,53861,11.25,72728.0,3.43,-31.85,-31.23,0,*7C
1486375642.08,53862,11.25,72728.3,3.45,-31.95,-31.33,0,*79
1486375643.33,53863,11.25,72724.8,3.49,-32.97,-32.51,0,*72
1486375644.56,53864,11.25,72726.0,3.43,-33.43,-33.03,0,*71
1486375645.79,53865,11.25,72726.3,3.45,-33.67,-33.21,0,*70
1486375647.01,53866,11.25,72728.3,3.43,-33.55,-33.09,0,*7E
1486375648.24,53867,11.25,72726.3,3.39,-33.15,-32.79,0,*70
1486375649.5,53868,11.25,72730.5,3.41,-32.57,-32.07,0,*7E
1486375650.75,53869,11.25,72730.5,3.41,-32.35,-31.85,0,*72
1486375652.0,53870,11.25,72730.3,3.41,-31.91,-31.33,0,*7A
1486375653.25,53871,11.25,72730.0,3.41,-32.23,-31.85,0,*7C
1486375654.54,53872,11.25,72732.0,3.41,-32.63,-32.07,0,*72
1486375655.76,53873,11.25,72730.3,3.39,-32.63,-32.01,0,*7A
1486375657.01,53874,11.25,72726.3,3.39,-32.45,-31.91,0,*73
1486375658.26,53875,11.25,72728.5,3.41,-32.35,-31.85,0,*7F
1486375659.48,53876,11.25,72730.0,3.39,-32.45,-32.01,0,*7B
1486375660.7,53877,11.25,72728.0,3.39,-32.23,-31.73,0,*7C
1486375661.92,53878,11.25,72726.8,3.39,-32.35,-31.91,0,*78
1486375663.14,53879,11.25,72726.5,3.37,-32.51,-32.13,0,*7C
1486375664.35,53880,11.25,72724.8,3.35,-32.69,-32.13,0,*73
1486375665.61,53881,11.25,72726.0,3.37,-32.51,-32.07,0,*7E
1486375666.84,53882,11.25,72726.3,3.35,-32.63,-32.13,0,*7B
1486375668.05,53883,11.25,72724.8,3.35,-32.69,-32.23,0,*73
1486375669.33,53884,11.25,72728.3,3.37,-32.63,-32.07,0,*7A
1486375670.56,53885,11.25,72728.5,3.35,-32.51,-31.95,0,*70
1486375671.81,53886,11.25,72728.3,3.33,-32.29,-31.79,0,*78
1486375673.08,53887,11.25,72728.3,3.33,-32.29,-31.85,0,*7A
1486375674.31,53888,11.25,72726.3,3.33,-33.03,-32.57,0,*70
1486375675.59,53889,11.25,72728.3,3.31,-33.49,-33.09,0,*77
1486375676.84,53890,11.25,72726.5,3.29,-33.77,-33.43,0,*75
1486375678.1,53891,11.25,72726.8,3.27,-33.73,-33.15,0,*7D
1486375679.35,53892,11.25,72724.3,3.27,-33.49,-33.03,0,*70
1486375680.59,53893,11.25,72730.0,3.25,-32.79,-32.29,0,*78
1486375681.82,53894,11.25,72726.8,3.25,-32.75,-32.39,0,*72
1486375683.05,53895,11.25,72726.5,3.21,-32.85,-32.35,0,*74
1486375684.3,53896,11.25,72726.3,3.21,-32.63,-32.29,0,*72
1486375685.55,53897,11.25,72724.3,3.21,-32.85,-32.45,0,*71
1486375686.8,53898,11.25,72730.0,3.19,-32.75,-32.35,0,*7D
1486375688.07,53899,11.25,72728.0,3.19,-32.29,-31.95,0,*7C
1486375689.31,53900,11.25,72724.8,3.19,-32.35,-31.95,0,*70
1486375690.59,53901,11.25,72724.3,3.19,-31.95,-31.57,0,*76
1486375691.83,53902,11.25,72728.3,3.19,-32.01,-31.57,0,*7B
1486375693.07,53903,11.25,72730.0,3.17,-32.01,-31.61,0,*71
1486375694.27,53904,11.25,72726.8,3.17,-32.01,-31.67,0,*70
1486375695.49,53905,11.25,72726.0,3.19,-31.67,-31.29,0,*76
1486375696.77,53906,11.25,72724.0,3.19,-31.85,-31.39,0,*78
1486375697.99,53907,11.25,72726.5,3.17,-31.33,-30.95,0,*7D
1486375699.19,53908,11.25,72724.8,3.17,-31.33,-31.01,0,*7E
1486375700.46,53909,11.25,72730.3,3.19,-31.85,-31.57,0,*7F
1486375701.72,53910,11.25,72726.8,3.19,-31.05,-30.77,0,*7C
1486375703.0,53911,11.25,72728.5,3.19,-31.11,-30.77,0,*78